Location: Kawakawa
(35.3830°S, 174.0670°E)
Time: 17:57:24
(UTC+13:00)

A-11 Canister half - Pass Details

Date: 15 December 2019
Orbit: 1525 x 1684 km, 47.3° (Epoch: 25 January)

Event Time Altitude Azimuth Distance (km) Brightness Sun altitude
Rises 01:54:35 0° 240° (WSW) 4,717 11.8 -30.8°
Reaches altitude 10° 01:57:49 10° 246° (WSW) 3,744 11.1 -30.7°
Enters shadow 02:04:58 40° 291° (WNW) 2,196 9.5 -30.4°
